Regional Weather Roundup
Issued by NWS

Home | Current Version | Previous Version | Graphics & Text | Print | Product List | Glossary On
Versions: 1 2 3 4 5 6 7 8 9 10 11 12 13 14 15 16 17 18 19 20 21 22 23 24 25 26 27
000
ASUS45 KBOU 231406
RWRCO

WEATHER ROUNDUP FOR COLORADO
NATIONAL WEATHER SERVICE DENVER/BOULDER CO
800 AM MDT WED APR 23 2014

NOTE: "FAIR" INDICATES FEW OR NO CLOUDS BELOW 12000 FEET WITH NO
SIGNIFICANT WEATHER AND/OR OBSTRUCTIONS TO VISIBILITY.

COZ001>005-013-030-031-231500-
...NORTHWEST COLORADO...

CITY           SKY/WX    TMP DP  RH WIND       PRES   REMARKS
CRAIG          PTSUNNY   38  33  82 S3        29.87R
HAYDEN         CLOUDY    36  34  93 SW6       29.89R
MEEKER         MOSUNNY   42  35  76 CALM      29.86R
MOUNT WERNER   CLOUDY    30  27  86 W15G23    29.90R VSB<1/4 WCI  19
STEAMBOAT SPGS CLOUDY    36  35  95 E7        29.86S
WALDEN         CLOUDY    32  30  93 N6        29.83R WCI  26
$$

COZ006>008-011-231500-
...WEST CENTRAL VALLEYS...

CITY           SKY/WX    TMP DP  RH WIND       PRES   REMARKS
GRAND JUNCTION SUNNY     48  30  49 W10       29.80R
MONTROSE       PTSUNNY   53  25  33 NW12      29.81R
EAGLE          MOSUNNY   48  34  57 S10       29.81F
RIFLE          CLOUDY    48  16  27 NW20G28   29.83R
DELTA          NOT AVBL
NUCLA          NOT AVBL
$$

COZ017>023-064>068-231500-
...SOUTHWEST COLORADO...

CITY           SKY/WX    TMP DP  RH WIND       PRES   REMARKS
DURANGO        SUNNY     51  23  33 W8        29.87R
CORTEZ         SUNNY     49  26  41 CALM      29.85R
PAGOSA SPRINGS SUNNY     49  26  40 CALM      29.91R
TELLURIDE      MOSUNNY   43  27  52 CALM      29.91S
WOLF CREEK PAS CLOUDY    30  23  74 SW24G33   30.00F WCI  16
$$

COZ009-010-012-014-032>034-037-058>063-231500-
...CENTRAL COLORADO...

CITY           SKY/WX    TMP DP  RH WIND       PRES   REMARKS
ASPEN          PTSUNNY   44  34  67 CALM      29.81F
BUENA VISTA    PTSUNNY   48  24  38 W17G24    29.81S
COPPER MTN     LGT SNOW  32  23  69 SW22G28   29.93S WCI  19
BERTHOUD PASS  CLOUDY    27  16  63 W24G33    29.92F WCI  12
COTTONWOOD PAS CLOUDY    43  27  52 W15G23    29.88R
GUNNISON       MOSUNNY   48  25  40 SW9       29.85F
KREMMLING      CLOUDY    41  30  65 N7        29.84R
LEADVILLE      CLOUDY    32  28  85 N7        29.88R WCI  26
MONARCH PASS   PTSUNNY   30  23  74 W32G41    30.03R WCI  15
SALIDA         PTSUNNY   53  26  34 SW10G17   29.88R
SUNLIGHT       MOSUNNY   30  28  93 CALM      29.91F
WILKERSON PASS MOSUNNY   32  21  64 SW15G25   29.91R WCI  22
$$

COZ069>075-231500-
...SAN LUIS VALLEY/SANGRE DE CRISTO MOUNTAINS...

CITY           SKY/WX    TMP DP  RH WIND       PRES   REMARKS
ALAMOSA        MOSUNNY   53  27  36 S18       29.84S
LA VETA PASS   MOSUNNY   39  25  56 SW18G38   29.89R
SAGUACHE       SUNNY     52  21  30 E6        29.82F
$$

COZ035-036-038>040-231500-
...NORTHERN COLORADO FRONT RANGE...

CITY           SKY/WX    TMP DP  RH WIND       PRES   REMARKS
DENVER INTL AP MOSUNNY   57  29  34 SW12      29.63R
DMNS CITY PARK   N/A     61  32  34 SW5       29.63R
AURORA         PTSUNNY   57  25  28 S12       29.64R
FRONT RANGE AP PTSUNNY   57  30  35 S12       29.63
ERIE MUNI ARPT MOSUNNY   62  30  29 W6        29.62R
BOULDER MUN AP MOSUNNY   63  28  27 W9G16     29.62R
CENTENNIAL     MOSUNNY   52  30  43 S9        29.66R
BROOMFIELD     MOSUNNY   63  27  25 SW15G25   29.65R
FORT COLLINS   MOSUNNY   55  37  50 NE7       29.63R
LONGMONT       NOT AVBL
$$

COZ041-046-047-076>085-087-088-231500-
...PIKES PEAK/PALMER DIVIDE AND SOUTHERN FOOTHILLS...

CITY           SKY/WX    TMP DP  RH WIND       PRES   REMARKS
COLO. SPRINGS  PTSUNNY   55  28  35 S14       29.70S
A. F. ACADEMY  SUNNY     55  20  25 SW8       29.71R
ELLICOTT       NOT AVBL
FALCON         PTSUNNY   54  24  30 S14       29.74S
FORT CARSON    PTSUNNY   55  29  35 SE8       29.69R
LIMON          PTSUNNY   53  37  54 S12       29.67S
MONUMENT HILL  MOSUNNY   48  25  40 SW3       29.73R
TRINIDAD       MOSUNNY   62  33  33 SW6       29.77R
$$

COZ042>045-048>051-090-091-231500-
...NORTHEAST COLORADO...

CITY           SKY/WX    TMP DP  RH WIND       PRES   REMARKS
GREELEY ARPT   MOSUNNY   54  36  50 CALM      29.61R
AKRON          CLOUDY    62  33  33 SW21G31   29.57R
BURLINGTON     CLOUDY    63  42  46 SW25      29.64S
WRAY           CLOUDY    64  43  45 S23G30    29.53S
STERLING       NOT AVBL
HOLYOKE        NOT AVBL
FORT MORGAN    NOT AVBL
$$

COZ086-089-092>099-231500-
...SOUTHEAST COLORADO...

CITY           SKY/WX    TMP DP  RH WIND       PRES   REMARKS
PUEBLO         PTSUNNY   63  34  33 S17       29.64F
LA JUNTA       MOSUNNY   65  42  43 SW18G25   29.66R
LAMAR          CLOUDY    68  44  42 SW28      29.63S
SPRINGFIELD      N/A     60  42  51 S17       29.74S
$$



USA.gov is the U.S. government's official web portal to all federal, state and local government web resources and services.